Location: Fort Wayne
(41.1310°N, 85.1290°W)
Time: 21:57:24
(UTC-05:00)

COSMOS 2406 - Visible Passes

Search period start: 20 February 2018 00:00
Search period end: 02 March 2018 00:00
Orbit: 844 x 863 km, 71.0° (Epoch: 20 February)

Date Brightness Start Highest point End Pass type
(mag) Time Alt. Az. Time Alt. Az. Time Alt. Az.
22 Feb 5.8 21:53:02 10° N 21:53:26 12° N 21:53:26 12° N visible
23 Feb 5.6 21:41:35 10° N 21:42:30 15° N 21:42:30 15° N visible
24 Feb 5.3 21:30:09 10° N 21:31:38 18° N 21:31:38 18° N visible
25 Feb 5.0 21:18:43 10° NNW 21:20:46 21° N 21:20:46 21° N visible
26 Feb 4.7 21:07:18 10° NNW 21:09:59 26° N 21:09:59 26° N visible
27 Feb 4.3 20:55:52 10° NNW 20:59:14 32° NNE 20:59:14 32° NNE visible
27 Feb 6.0 22:40:41 10° NW 22:41:19 13° NW 22:41:19 13° NW visible
28 Feb 3.9 20:44:25 10° NNW 20:48:34 39° NNE 20:48:34 39° NNE visible
28 Feb 5.7 22:29:17 10° NW 22:30:39 16° WNW 22:30:39 16° WNW visible
01 Mar 3.6 20:33:00 10° NNW 20:37:57 44° NE 20:37:57 44° NE visible
01 Mar 5.5 22:17:53 10° NW 22:20:03 19° WNW 22:20:03 19° WNW visible
